Volver al catálogo

STARLINK-38078

ActivoComunicacionesSSO
NORAD 69744·PAYLOAD·🇺🇸 United States

Lanzado Jul 2, 2026 desde Vandenberg Space Force Base

Loading…

Próximos Pases (próximas 24 horas)

TLE

ActualizadoSource: CelesTrak SupGP

Época: Sep 15, 2026, 03:45 UTC

1 69744C 26150F   26258.15673611 -.00042742  00000+0 -13256-2 0  2584
2 69744  97.2852  97.0967 0001649 100.4864 232.0957 15.33489467    15

Sigue STARLINK-38078 en tiempo real con AllMySat

Download on the App Store